Location: Les Jeannots
(43.2262°N, 5.5774°E)
Time: 07:35:54
(UTC+00:00)

Cosmos 2344 - Pass Details

Date: 05 July 2020
Orbit: 1249 x 2993 km, 63.3° (Epoch: 04 August)

Event Time Altitude Azimuth Distance (km) Brightness Sun altitude
Exits shadow 22:16:04 29° 189° (S) 2,140 4.3 -21.2°
Maximum altitude 22:20:06 62° 120° (ESE) 1,392 3.5 -21.4°
Drops below altitude 10° 22:27:45 10° 41° (NE) 3,404 6.2 -21.9°
Sets 22:30:48 0° 39° (NE) 4,511 6.9 -22.1°
